Location: ???????
(55.3754°N, 39.3545°E)
Time: 21:35:10
(UTC+00:00)

ATLAS 3B R/B - Pass Details

Date: 14 April 2026
Orbit: 937 x 1257 km, 63.8° (Epoch: 11 May)

Event Time Altitude Azimuth Distance (km) Brightness Sun altitude
Rises 19:49:57 0° 285° (WNW) 4,194 6.4 -22.2°
Reaches altitude 10° 19:52:54 10° 292° (WNW) 3,240 5.8 -22.3°
Maximum altitude 20:00:28 46° 4° (N) 1,629 4.0 -22.7°
Drops below altitude 10° 20:07:54 10° 77° (ENE) 3,184 5.1 -23.1°
Sets 20:10:47 0° 84° (E) 4,115 5.6 -23.3°
